{"data":{"norad_id":67743,"intl_designator":"2026-026Y","name":"STARLINK-36717","alt_names":[],"object_type":"PAYLOAD","status":"ACTIVE","operator":null,"country":"US","launch_date":"2026-02-11","launch_site_code":"AFWTR","launch_vehicle":null,"mission":null,"orbit_class":"UNKNOWN","rcs_meters":null,"size_class":null,"mass_kg":null,"dimensions":null,"purposes":["comms"],"wikipedia_slug":null,"has_3d_model":false,"image_url":null,"decayed_at":null,"tle_current":{"epoch":"2026-05-25T02:54:31.953888Z","epoch_age_seconds":68090,"freshness":"FRESH","line1":"1 67743U 26026Y   26145.12120317  .00014570  00000+0  45255-3 0  9998","line2":"2 67743  97.2851 198.7134 0000645 111.5286 248.6026 15.33461026 15840","mean_motion":15.33461026,"eccentricity":6.45e-5,"inclination_deg":97.2851,"raan_deg":198.7134,"arg_perigee_deg":111.5286,"mean_anomaly_deg":248.6026,"bstar":0.00045255,"rev_number":1584,"period_min":93.90522325541,"perigee_km":465.05407849686,"apogee_km":465.93690708843,"semimajor_km":6843.6324927926,"source":"CELESTRAK","updated_at":"2026-05-25T13:38:21.691201Z"}}}